Regional Weather Roundup
Issued by NWS

Home | Current Version | Previous Version | Text Only | Print | Product List | Glossary Off
Versions: 1 2 3 4 5 6 7 8 9 10 11 12 13 14 15 16 17 18 19 20 21 22 23 24 25 26 27 28 29 30 31 32 33 34 35 36 37 38 39 40 41 42 43 44 45 46 47 48 49 50

900
ASUS45 KBOI 200510
RWRID

IDAHO REGIONAL WEATHER ROUNDUP
NATIONAL WEATHER SERVICE BOISE ID
1000 PM MST FRI JAN 19 2018

NOTE: "FAIR" INDICATES FEW OR NO CLOUDS BELOW 12000 FEET
WITH NO SIGNIFICANT WEATHER AND/OR OBSTRUCTIONS TO VISIBILITY

IDZ012-014-200600-
SOUTHWEST IDAHO


CITY           SKY/WX    TMP DP  RH WIND       PRES   REMARKS
BOISE          CLEAR     34  26  72 CALM      29.99S
CALDWELL         N/A     33  26  75 W3        30.02R
MOUNTAIN HOME  CLEAR     30  30 100 NW3       29.99S
$$

IDZ016-017-200600-
SOUTHCENTRAL IDAHO


CITY           SKY/WX    TMP DP  RH WIND       PRES   REMARKS
BURLEY         CLOUDY    34  25  69 W13       29.93S WCI  25
JEROME         PTCLDY    30  25  81 SW10      29.95S WCI  21
TWIN FALLS     MOCLDY    29  25  85 SW10      29.96R WCI  20
$$

IDZ019>023-200600-
SOUTHEAST IDAHO


CITY           SKY/WX    TMP DP  RH WIND       PRES   REMARKS
IDAHO FALLS    FLURRIES  31  28  89 SW17      29.90R WCI  19
POCATELLO      CLOUDY    33  26  75 SW13      29.92S WCI  24
REXBURG        LGT SNOW  29  29 100 S10       29.87S FOG     WCI  20
$$

IDZ006-010-011-018-031-032-200600-
CENTRAL IDAHO MOUNTAINS


CITY           SKY/WX    TMP DP  RH WIND       PRES   REMARKS
MCCALL         CLOUDY    23  21  92 CALM      29.91S
HAILEY         CLEAR     25  16  68 NW6       29.90S WCI  18
STANLEY          N/A     17  14  88 CALM      29.89R
SALMON         MOCLDY    27  20  75 CALM      29.95R
CHALLIS        CLOUDY    25  17  72 CALM      29.91R
$$

IDZ002-004-006-007-026-200600-
NORTHERN IDAHO


CITY           SKY/WX    TMP DP  RH WIND       PRES   REMARKS
LEWISTON       PTCLDY    36  34  92 CALM      29.99R
LOWELL           N/A     35  35 100 CALM      30.04R
COEUR D`ALENE  CLOUDY    35  31  85 S6        29.94R WCI  30
MULLAN PASS    CLOUDY    21  20  96 VRB6      29.82S WCI  13
$$




USA.gov is the U.S. government's official web portal to all federal, state and local government web resources and services.